2018-097B (43752 NORAD) Tracking and Keplerian Element Data

This shows tracking and keplerian element data for the satellite.

Feedback or suggestion? Click here.




ElementValue
Catalog43752
Name2018-097B
Epoch Orbit373
Epoch Day364.11606955
Epoch Year2018
RAAN114.4068
Inclination82.5195
Eccentricity0.0015313
Argument of Perigee241.8265
Mean Anonmoly118.1254
Mean Motion12.42694463
Decay Rate4.1E-07
L11 43752U 18097B 18364.11606955 .00000041 00000-0 22916-3 0 9999
L22 43752 82.5195 114.4068 0015313 241.8265 118.1254 12.42694463 3734

Live tracking and technical data element details for 2018-097B (NORAD 43752). 2018-097B can be tracked NOW for your location showing map with azimuth and elevation plus other details from your city location.

Track the satellite on the map from your city or location and see movement details for azimuth, elevation, latitude, longitude, range, height, and movement on the map or in text.







IsCatalogInMostPopularTable: catalog: 43752, numindb: 100
Update: records affected: 1



GetName: 43752 2018-097B

Hit Count: updated at: Sun, 21 Jul 2019 15:09:23 GMT